This is the latest recevied weather packets stored in our database for station/object WB4ROX-10. If no packets are shown the sender has not sent any weather packets the latest 10 day(s).
| Time | Temp. | Humidity | Pressure | Rain* | Wind** | Luminosity | Snow |
|---|---|---|---|---|---|---|---|
| 1777699041 | 5° C | 88% | 1005.9 hPa | 0 mm | - | - | - |
| 1777698740 | 5° C | 88% | 1005.9 hPa | 0 mm | - | - | - |
| 1777698441 | 5° C | 87% | 1005.9 hPa | 0 mm | - | - | - |
| 1777698141 | 5° C | 87% | 1005.9 hPa | 0 mm | - | - | - |
| 1777697540 | 5° C | 86% | 1005.9 hPa | 0 mm | - | - | - |
| 1777697240 | 5° C | 86% | 1006 hPa | 0 mm | - | - | - |
| 1777696941 | 5° C | 85% | 1005.9 hPa | 0 mm | - | - | - |
| 1777696640 | 5° C | 84% | 1005.8 hPa | 0 mm | - | - | - |
| 1777696340 | 5° C | 84% | 1006 hPa | 0 mm | - | - | - |
| 1777696040 | 5° C | 83% | 1006.2 hPa | 0 mm | - | - | - |
| 1777695741 | 5.56° C | 82% | 1006.1 hPa | 0 mm | - | - | - |
| 1777695440 | 5.56° C | 80% | 1006.1 hPa | 0 mm | - | - | - |
| 1777695141 | 5.56° C | 78% | 1006 hPa | 0 mm | - | - | - |
| 1777694840 | 5.56° C | 76% | 1006.2 hPa | 0 mm | - | - | - |
| 1777694540 | 6.11° C | 75% | 1006.3 hPa | 0 mm | - | - | - |
| 1777694240 | 6.11° C | 74% | 1006.1 hPa | 0 mm | - | - | - |
| 1777693341 | 6.67° C | 70% | 1006 hPa | 0 mm | - | - | - |
| 1777693040 | 6.67° C | 68% | 1006.1 hPa | 0 mm | - | - | - |
| 1777692742 | 7.22° C | 65% | 1006.1 hPa | 0 mm | - | - | - |
| 1777692141 | 7.22° C | 63% | 1006.3 hPa | 0 mm | - | - | - |
| 1777691842 | 7.22° C | 62% | 1006.2 hPa | 0 mm | - | - | - |
| 1777691540 | 7.22° C | 62% | 1006.2 hPa | 0 mm | - | - | - |
| 1777691241 | 7.22° C | 62% | 1006.4 hPa | 0 mm | - | - | - |
| 1777690648 | 7.22° C | 62% | 1006.3 hPa | 0 mm | - | - | - |
| 1777690340 | 7.22° C | 63% | 1006.3 hPa | 0 mm | - | - | - |
* Rain latest hour (hover to see other rain measurements)
** Current wind speed in m/s (hover to see current wind gust speed)